Location: Poughquag
(41.6090°N, 73.6820°W)
Time: 12:46:27
(UTC-04:00)

Tiros 1 despin weight - Pass Details

Date: 03 June 2020
Orbit: 593 x 642 km, 48.2° (Epoch: 07 July)

Event Time Altitude Azimuth Distance (km) Brightness Sun altitude
Rises 11:52:55 0° 273° (W) 2,922 ? 67.0°
Reaches altitude 10° 11:55:23 10° 281° (W) 2,008 ? 67.3°
Maximum altitude 11:59:44 39° 351° (N) 943 ? 67.8°
Drops below altitude 10° 12:04:00 10° 60° (ENE) 1,980 ? 68.2°
Sets 12:06:26 0° 68° (ENE) 2,877 ? 68.5°
